Zurück zum Katalog

COSMOS 2251 DEB

AktivLEO
NORAD 34874·DEBRIS·🇷🇺 Russia

Gestartet Jun 16, 1993 von Plesetsk Cosmodrome

Loading…

Nächste Überflüge (nächste 24 Stunden)

TLE

AktuellSource: Space-Track

Epoche: Sep 13, 2026, 01:49 UTC

1 34874U 93036ACM 26256.07585933  .00000923  00000-0  31206-3 0  9997
2 34874  74.0370 289.3561 0053711 250.9140 137.6000 14.37463715909850

Verfolge COSMOS 2251 DEB in Echtzeit mit AllMySat

Download on the App Store